Regional Weather Roundup
Issued by NWS Sterling, VA

Home | Current Version | Previous Version | Text Only | Print | Product List | Glossary On
Versions: 1 2 3 4 5 6 7 8 9 10 11 12 13 14 15 16 17 18 19 20 21 22 23 24 25 26 27 28 29 30 31 32 33 34 35 36 37 38 39 40 41 42 43 44 45 46 47 48 49 50
000
ASUS41 KLWX 281510
RWRLWX

REGIONAL WEATHER ROUNDUP
NATIONAL WEATHER SERVICE BALTIMORE MD/WASHINGTON DC
1000 AM EST SUN DEC 28 2014

Note: "FAIR" indicates few or no clouds below 12,000 feet
with no significant weather and/or obstructions to visibility.
 TC=TEMPERATURE CELSIUS

 * =Non NWS site. Station does not report precipitation (e.g. rain,
    snow, etc.), thunder, or fog.

DCZ001-MDZ009-015-VAZ040>042-051-053>054-281600-
WASHINGTON METRO

CITY           SKY/WX    TMP DP  RH WIND       PRES   REMARKS
WASHINGTON NAT CLOUDY    54  39  57 S3        29.99R
DULLES         CLOUDY    49  40  71 CALM      29.98S
ANDREWS AFB    CLOUDY    53  41  65 SW5       29.97S
FT BELVOIR     CLOUDY    51  41  68 SE1       30.00R
QUANTICO       CLOUDY    49  39  68 E5        30.01R
COLLEGE PARK*  CLOUDY    52  41  66 CALM      29.98R
LEESBURG*      CLOUDY    50  41  71 CALM      29.98S
MANASSAS*      CLOUDY    52  43  71 SE3       29.97S
GAITHERSBURG*  CLOUDY    48  37  66 NW3       30.00S

$$

MDZ006>007-011-014-281600-
BALTIMORE METRO

CITY           SKY/WX    TMP DP  RH WIND       PRES   REMARKS
BWI AIRPORT    CLOUDY    49  41  74 SW3       29.96R
MD SCIENCE CTR   N/A     49  41  74 MISG      29.99R
MARTIN STATE   CLOUDY    46  45  93 CALM      29.99R
ANNAPOLIS      CLOUDY    46  40  79 CALM      29.98R
FORT MEADE*    CLOUDY    48  43  81 CALM      29.99S

$$

MDZ012-015-019>023-281600-
MARYLAND EASTERN SHORE

CITY           SKY/WX    TMP DP  RH WIND       PRES   REMARKS
OCEAN CITY     CLOUDY    56  42  59 W16G24    29.98R
SALISBURY      CLOUDY    58  42  55 W13       30.00R
BAY BRIDGE AP*   N/A     52  39  62 SW3       29.99R
CAMBRIDGE*     CLOUDY    54  43  66 CALM      29.98F
EASTON*        PTSUNNY   54  46  76 SW6       30.03R

$$

MDZ017>025-281600-
SOUTHERN MARYLAND

CITY           SKY/WX    TMP DP  RH WIND       PRES   REMARKS
PATUXENT RIVER CLOUDY    56  39  53 W7        29.98R
ST INIGOES     CLOUDY    56  40  55 SW8       29.98S
LEONARDTOWN*   CLOUDY    54  37  54 W8        30.00S

$$

MDZ003>005-281600-
NORTH CENTRAL MARYLAND

CITY           SKY/WX    TMP DP  RH WIND       PRES   REMARKS
FREDERICK*     MOSUNNY   54  37  54 CALM      29.99S
HAGERSTOWN APT PTSUNNY   54  41  61 W10       29.95F
WESTMINSTER*   CLOUDY    52  39  62 CALM      29.95S

$$

MDZ501>502-281600-
WESTERN MARYLAND

CITY           SKY/WX    TMP DP  RH WIND       PRES   REMARKS
OAKLAND*       FOG       41 N/A N/A W9        29.98R VSB<1/4
CUMBERLAND*    CLOUDY    54  41  62 W8        30.01S

$$

VAZ025>031-281600-
SHENANDOAH VALLEY

CITY           SKY/WX    TMP DP  RH WIND       PRES   REMARKS
WINCHESTER*    CLOUDY    52  32  46 CALM      29.96F
FRONT ROYAL*   PTSUNNY   50  36  57 CALM      29.94F
LURAY*         CLOUDY    54  41  62 CALM      29.95F
NEW MARKET*    FAIR      48  38  68 CALM      29.95F
STAUNTON*      CLOUDY    58  44  60 SW7       29.98S
WAYNESBORO*    FAIR      56  42  60 SW6       29.98S

$$

WVZ021-048>050-054>055-281600-
EASTERN WEST VIRGINIA PANHANDLE

CITY           SKY/WX    TMP DP  RH WIND       PRES   REMARKS
MARTINSBURG    CLOUDY    57  40  52 W9        29.97R
PETERSBURG*    CLOUDY    56  40  56 NW6       29.98R

$$

VAZ036>039-050-281600-
CENTRAL FOOTHILLS

CITY           SKY/WX    TMP DP  RH WIND       PRES   REMARKS
CHARLOTTESVILL CLOUDY    54  39  57 S9        29.96S
CULPEPER*      CLOUDY    54  41  62 E3        29.98S
ORANGE*        CLOUDY    54  39  58 S7        29.97F
GORDONSVILLE*  PTSUNNY   52  39  60 SW8       29.97S
WARRENTON*     FAIR      56  45  66 S6        29.96F

$$

VAZ055>057-281600-
NORTH AND CENTRAL PIEDMONT

CITY           SKY/WX    TMP DP  RH WIND       PRES   REMARKS
FREDERICKSBRG* CLOUDY    57  40  54 W5        29.98R
STAFFORD*      CLOUDY    55  38  53 CALM      30.03R

$$

NCZ024-NYZ072-PAZ021-071-VAZ022-071-281600-
OTHER REGIONAL OBSERVATIONS

CITY           SKY/WX    TMP DP  RH WIND       PRES   REMARKS
NEW YORK CITY  LGT RAIN  46  40  79 VRB6      29.94R
PHILADELPHIA   CLOUDY    46  41  82 W7        29.97R
PITTSBURGH     CLOUDY    37  35  92 NW13      30.04R WCI  29
ROANOKE        CLOUDY    56  34  43 W3        30.03R
RICHMOND       CLOUDY    58  41  53 SW13      30.01F
RALEIGH        CLOUDY    57  50  77 SW13      30.08S

$$

ANZ530>537-281600-
MARINE OBSERVATIONS

STATION/POSITION TIME  TEMP    WIND        PRES
                       AIR SEA DIR/SP/G
                 (UTC) (F)     (DEG/KT/KT) (MB)
THOMAS PT LIGHT  1500   49 43  210/  7/  7 1016.4R
BALT KEY BRIDGE  1500   45     170/  3/  3 1014.5F
COVE POINT       1500   53      30/  4/  5 1015.2F
LEWISETTA        1500   56 45  250/ 13/ 18 1015.0R
SOLOMONS ISLAND  1500      44                N/A
PINEY POINT      1500          300/  3/  4   N/A

$$




USA.gov is the U.S. government's official web portal to all federal, state and local government web resources and services.